Location: Unspecified
(47.9110°N, 14.3980°E)
Time: 10:20:49
(UTC+00:00)

NOSS 3-2 (C) - Pass Details

Date: 06 August 2020
Orbit: 800 x 1413 km, 63.4° (Epoch: 15 September)

Event Time Altitude Azimuth Distance (km) Brightness Sun altitude
Exits shadow 21:17:18 41° 141° (SE) 1,275 3.6 -21.1°
Maximum altitude 21:18:10 44° 118° (ESE) 1,242 3.7 -21.2°
Drops below altitude 10° 21:24:11 10° 49° (NE) 2,787 6.0 -21.6°
Sets 21:27:05 0° 44° (NE) 3,840 6.9 -21.9°
